Flag for Italy Weather past 2 weeks in Naples, Italy

Now
77 °F

Broken clouds.


Feels Like: 79 °F
Forecast: 69 / 84 °F
Wind: 6 mph from Southwest

Location: Naples / Capodichino

Current Time: Jul 24, 2014 at 3:10:01 PM

Latest Report: Jul 24, 2014 at 1:50 PM


Visibility: N/A

Pressure: 29.89 "Hg

Humidity: 79%

Dew point: 70 °F

Location of NaplesLocation

Historic Weather in Naples — Graph

°F

Naples temperature yesterday

Maximum temperature yesterday: 82 °F (at 4:20 PM)
Minimum temperature yesterday: 64 °F (at 2:50 AM)
Average temperature yesterday: 74 °F

Past Weeks' High & Low Weather Summary

 TemperatureHumidityPressure
High90 °F (Jul 17, 3:50 PM)94% (Jul 13, 6:50 AM)30.04 "Hg (Jul 13, 6:50 AM)
Low61 °F (Jul 11, 2:50 AM)29% (Jul 19, 5:50 PM)29.62 "Hg (Jul 14, 4:50 PM)
Average75 °F65%29.92 "Hg
* Reported Jul 9 2:50 PM — Jul 24 1:20 PM, Naples, Weather by CustomWeather, © 2014

Note: Actual official high and low records may vary slightly from our data, if they occured in-between our weather recording intervals... More about our weather records

Advertising

Naples weather history for previous 24 hours

 ConditionsComfort  
Time TempWeatherWind HumidityBarometerVisibility
1:20 PM
Jul 24
77 °FBroken clouds.2 mph79%29.89 "HgN/A
12:50 PM72 °FThunderstorms. Broken clouds.3 mph88%29.89 "HgN/A
12:20 PM79 °FBroken clouds.7 mph70%29.89 "HgN/A
11:50 AM77 °FBroken clouds.5 mph74%29.89 "HgN/A
11:20 AM77 °FPartly sunny.6 mph74%29.89 "HgN/A
10:50 AM77 °FDrizzle. Partly sunny.6 mph74%29.89 "HgN/A
10:20 AM79 °FPartly sunny.7 mph70%29.89 "HgN/A
9:50 AM79 °FPartly sunny.5 mph70%29.89 "HgN/A
9:20 AM77 °FPartly sunny.5 mph69%29.89 "HgN/A
8:50 AM77 °FPassing clouds.2 mph69%29.89 "HgN/A
8:20 AM75 °FPassing clouds.2 mph74%29.89 "HgN/A
7:50 AM75 °FScattered clouds.2 mph74%29.86 "HgN/A
7:20 AM72 °FScattered clouds.1 mph83%29.86 "HgN/A
6:50 AM70 °FPassing clouds.2 mph88%29.86 "HgN/A
6:20 AM68 °FPassing clouds.3 mph88%29.86 "HgN/A
5:50 AM68 °FPassing clouds.5 mph88%29.86 "HgN/A
5:20 AM68 °FPassing clouds.3 mph88%29.86 "HgN/A
4:50 AM70 °FPassing clouds.2 mph83%29.86 "HgN/A
4:20 AM70 °FPassing clouds.2 mph83%29.86 "HgN/A
3:50 AM70 °FPassing clouds.3 mph83%29.86 "HgN/A
3:20 AM70 °FPassing clouds.No wind83%29.86 "HgN/A
2:50 AM72 °FPassing clouds.3 mph78%29.86 "HgN/A
2:20 AM72 °FPassing clouds.6 mph78%29.86 "HgN/A
2:00 AM72 °FMild.N/A78%29.89 "HgN/A
1:50 AM72 °FMild.N/A78%29.89 "HgN/A
1:20 AM73 °FPassing clouds.No wind74%29.89 "HgN/A
12:50 AM73 °FPassing clouds.No wind74%29.89 "HgN/A
12:20 AM73 °FPassing clouds.3 mph74%29.89 "HgN/A
11:50 PM
Jul 23
73 °FPassing clouds.2 mph74%29.89 "HgN/A
11:20 PM73 °FPassing clouds.No wind78%29.86 "HgN/A
10:50 PM75 °FPassing clouds.5 mph74%29.86 "HgN/A
10:20 PM73 °FClear.5 mph74%29.86 "Hg10 mi
9:50 PM75 °FClear.5 mph69%29.86 "Hg10 mi
8:50 PM75 °FPassing clouds.3 mph65%29.83 "HgN/A
8:20 PM77 °FPassing clouds.6 mph61%29.83 "HgN/A
7:50 PM77 °FPassing clouds.6 mph61%29.83 "HgN/A
7:20 PM79 °FPassing clouds.7 mph65%29.83 "HgN/A
6:50 PM79 °FSunny.8 mph65%29.83 "Hg10 mi
6:20 PM81 °FPassing clouds.10 mph54%29.80 "HgN/A
5:50 PM81 °FPassing clouds.9 mph58%29.80 "HgN/A
5:20 PM81 °FPassing clouds.9 mph54%29.80 "HgN/A
4:50 PM82 °FSnow. Cloudy.5 mph48%29.80 "HgN/A
4:20 PM82 °FPassing clouds.7 mph48%29.80 "HgN/A
3:50 PM81 °FPassing clouds.7 mph51%29.80 "HgN/A
Weather by CustomWeather, © 2014

See weather overviewHow to use our weather pages